• In Czech Republic
  • List of Countries
  • For 7 days
  • Water Temperature
  • Satellite Maps
  • Weather Map
  • Weather Widgets
  • user-avatar
    Login

    Hourly Weather Kensington

    Today, 19 February, Monday

    Time Temperature Precipitation Wind Pressure Humidity
    00:00 -7°C° 0 mm 4 mps 769 mmHg 87%
    01:00 -7°C° 0 mm 4 mps 769 mmHg 85%
    02:00 -8°C° 0 mm 4 mps 770 mmHg 84%
    03:00 -7°C° 0 mm 3 mps 770 mmHg 84%
    04:00 -7°C° 0 mm 3 mps 771 mmHg 84%
    05:00 -8°C° 0 mm 3 mps 771 mmHg 84%
    06:00 -8°C° 0 mm 3 mps 772 mmHg 84%
    07:00 -8°C° 0 mm 3 mps 772 mmHg 84%
    08:00 -7°C° 0 mm 3 mps 773 mmHg 85%
    09:00 -6°C° 0 mm 3 mps 773 mmHg 83%
    10:00 -5°C° 0 mm 3 mps 773 mmHg 81%
    11:00 -4°C° 0 mm 4 mps 773 mmHg 80%
    12:00 -3°C° 0 mm 4 mps 772 mmHg 78%
    13:00 -2°C° 0 mm 5 mps 772 mmHg 75%
    14:00 -1°C° 0 mm 5 mps 771 mmHg 73%
    15:00 -1°C° 0 mm 5 mps 770 mmHg 73%
    16:00 -2°C° 0 mm 6 mps 770 mmHg 73%
    17:00 -2°C° 0 mm 6 mps 769 mmHg 73%
    18:00 -2°C° 0 mm 6 mps 769 mmHg 75%
    19:00 -2°C° 0 mm 6 mps 769 mmHg 77%
    20:00 -2°C° 0 mm 6 mps 768 mmHg 79%
    21:00 -2°C° 0 mm 6 mps 768 mmHg 81%
    22:00 -2°C° 0 mm 7 mps 768 mmHg 82%
    23:00 -2°C° 0 mm 7 mps 768 mmHg 84%

    Tomorrow, 20 February, Tuesday

    Time Temperature Precipitation Wind Pressure Humidity
    00:00 -1°C° 0.1 mm 6 mps 768 mmHg 86%
    01:00 -1°C° 0.1 mm 6 mps 767 mmHg 89%
    02:00 0°C° 0.1 mm 5 mps 767 mmHg 91%
    03:00 0°C° 0.1 mm 4 mps 767 mmHg 92%
    04:00 -1°C° 0.1 mm 4 mps 766 mmHg 94%
    05:00 0°C° 0.1 mm 3 mps 766 mmHg 95%
    06:00 +1°C° 0.3 mm 2 mps 766 mmHg 96%
    07:00 +1°C° 0.3 mm 2 mps 766 mmHg 96%
    08:00 +2°C° 0.3 mm 1 mps 766 mmHg 97%
    09:00 +3°C° 0.2 mm 1 mps 766 mmHg 97%
    10:00 +3°C° 0.2 mm 1 mps 766 mmHg 97%
    11:00 +3°C° 0.2 mm 1 mps 766 mmHg 98%
    12:00 +2°C° 0 mm 2 mps 766 mmHg 97%
    13:00 +2°C° 0 mm 2 mps 765 mmHg 96%
    14:00 +1°C° 0 mm 3 mps 765 mmHg 94%
    15:00 +1°C° 0.4 mm 3 mps 765 mmHg 95%
    16:00 -1°C° 0.4 mm 4 mps 766 mmHg 95%
    17:00 -2°C° 0.4 mm 4 mps 766 mmHg 95%
    18:00 -2°C° 0.1 mm 5 mps 766 mmHg 95%
    19:00 -2°C° 0.1 mm 5 mps 766 mmHg 95%
    20:00 -2°C° 0.1 mm 5 mps 766 mmHg 95%
    21:00 -4°C° 0.2 mm 5 mps 766 mmHg 94%
    22:00 -4°C° 0.2 mm 5 mps 766 mmHg 94%
    23:00 -4°C° 0.2 mm 5 mps 766 mmHg 93%

    Day after tomorrow, 21 February, Wednesday

    Time Temperature Precipitation Wind Pressure Humidity
    00:00 -5°C° 0.1 mm 5 mps 766 mmHg 93%
    01:00 -5°C° 0.1 mm 5 mps 766 mmHg 93%
    02:00 -5°C° 0.1 mm 5 mps 766 mmHg 93%
    03:00 -5°C° 0.3 mm 5 mps 765 mmHg 94%
    04:00 -5°C° 0.3 mm 5 mps 765 mmHg 94%
    05:00 -5°C° 0.3 mm 5 mps 764 mmHg 94%
    06:00 -5°C° 0.3 mm 5 mps 764 mmHg 94%
    07:00 -4°C° 0.3 mm 4 mps 764 mmHg 94%
    08:00 -3°C° 0.3 mm 4 mps 764 mmHg 95%
    09:00 -2°C° 0.1 mm 3 mps 763 mmHg 95%
    10:00 -1°C° 0.1 mm 3 mps 762 mmHg 96%
    11:00 -1°C° 0.1 mm 2 mps 762 mmHg 97%
    12:00 +1°C° 0.2 mm 2 mps 761 mmHg 97%
    13:00 +1°C° 0.2 mm 2 mps 760 mmHg 97%
    14:00 +3°C° 0.2 mm 1 mps 759 mmHg 98%
    15:00 +2°C° 0 mm 2 mps 759 mmHg 97%
    16:00 +2°C° 0 mm 2 mps 758 mmHg 97%
    17:00 +2°C° 0 mm 2 mps 758 mmHg 97%
    18:00 +1°C° 0 mm 3 mps 758 mmHg 97%
    19:00 +2°C° 0 mm 3 mps 758 mmHg 97%
    20:00 +1°C° 0 mm 4 mps 757 mmHg 97%
    21:00 +2°C° 0 mm 5 mps 757 mmHg 97%
    22:00 +3°C° 0 mm 5 mps 757 mmHg 98%
    23:00 +5°C° 0 mm 6 mps 757 mmHg 98%

    22 February, Thursday

    Time Temperature Precipitation Wind Pressure Humidity
    00:00 +4°C° 0 mm 6 mps 757 mmHg 98%
    01:00 +4°C° 0 mm 6 mps 757 mmHg 98%
    02:00 +3°C° 0 mm 7 mps 758 mmHg 98%
    03:00 +2°C° 0 mm 7 mps 759 mmHg 93%
    04:00 0°C° 0 mm 7 mps 760 mmHg 88%
    05:00 -2°C° 0 mm 7 mps 761 mmHg 83%
    06:00 -3°C° 0 mm 7 mps 762 mmHg 79%
    07:00 -5°C° 0 mm 8 mps 763 mmHg 75%
    08:00 -6°C° 0 mm 9 mps 764 mmHg 72%
    09:00 -6°C° 0 mm 9 mps 765 mmHg 70%
    10:00 -8°C° 0 mm 9 mps 766 mmHg 68%
    11:00 -7°C° 0 mm 8 mps 766 mmHg 66%
    12:00 -8°C° 0 mm 8 mps 767 mmHg 66%
    13:00 -8°C° 0 mm 8 mps 767 mmHg 66%
    14:00 -8°C° 0 mm 7 mps 767 mmHg 67%
    15:00 -8°C° 0 mm 7 mps 768 mmHg 67%
    16:00 -8°C° 0 mm 6 mps 768 mmHg 68%
    17:00 -8°C° 0 mm 6 mps 768 mmHg 68%
    18:00 -8°C° 0 mm 6 mps 769 mmHg 69%
    19:00 -9°C° 0 mm 6 mps 770 mmHg 69%
    20:00 -9°C° 0 mm 6 mps 770 mmHg 69%
    21:00 -9°C° 0 mm 7 mps 771 mmHg 69%
    22:00 -11°C° 0 mm 7 mps 771 mmHg 68%
    23:00 -11°C° 0 mm 8 mps 771 mmHg 68%

    23 February, Friday

    Time Temperature Precipitation Wind Pressure Humidity
    00:00 -12°C° 0 mm 8 mps 771 mmHg 68%
    01:00 -12°C° 0 mm 8 mps 772 mmHg 69%
    02:00 -12°C° 0 mm 8 mps 772 mmHg 69%
    03:00 -13°C° 0 mm 8 mps 773 mmHg 68%
    04:00 -13°C° 0 mm 8 mps 773 mmHg 68%
    05:00 -15°C° 0 mm 8 mps 774 mmHg 68%
    06:00 -14°C° 0 mm 7 mps 774 mmHg 67%
    07:00 -14°C° 0 mm 7 mps 775 mmHg 67%
    08:00 -14°C° 0 mm 7 mps 775 mmHg 66%
    09:00 -14°C° 0 mm 6 mps 776 mmHg 63%
    10:00 -14°C° 0 mm 6 mps 776 mmHg 59%
    11:00 -12°C° 0 mm 5 mps 776 mmHg 56%
    12:00 -12°C° 0 mm 5 mps 775 mmHg 54%
    13:00 -11°C° 0 mm 5 mps 775 mmHg 52%
    14:00 -10°C° 0 mm 4 mps 774 mmHg 50%
    15:00 -10°C° 0 mm 4 mps 774 mmHg 51%
    16:00 -8°C° 0 mm 3 mps 774 mmHg 51%
    17:00 -8°C° 0 mm 3 mps 774 mmHg 52%
    18:00 -8°C° 0 mm 3 mps 774 mmHg 52%
    19:00 -8°C° 0 mm 3 mps 774 mmHg 53%
    20:00 -7°C° 0 mm 3 mps 773 mmHg 53%
    21:00 -7°C° 0 mm 3 mps 773 mmHg 55%
    22:00 -7°C° 0 mm 3 mps 773 mmHg 57%
    23:00 -7°C° 0 mm 3 mps 773 mmHg 59%

    24 February, Saturday

    Time Temperature Precipitation Wind Pressure Humidity
    00:00 -7°C° 0 mm 3 mps 772 mmHg 60%
    01:00 -7°C° 0 mm 3 mps 772 mmHg 61%
    02:00 -7°C° 0 mm 3 mps 771 mmHg 62%
    03:00 -7°C° 0 mm 3 mps 771 mmHg 62%
    04:00 -8°C° 0 mm 4 mps 770 mmHg 62%
    05:00 -7°C° 0 mm 4 mps 770 mmHg 62%
    06:00 -7°C° 0 mm 4 mps 769 mmHg 66%
    07:00 -7°C° 0 mm 4 mps 769 mmHg 70%
    08:00 -5°C° 0 mm 4 mps 769 mmHg 74%
    09:00 -6°C° 0 mm 5 mps 768 mmHg 71%
    10:00 -5°C° 0 mm 5 mps 767 mmHg 67%
    11:00 -4°C° 0 mm 6 mps 766 mmHg 63%
    12:00 -4°C° 0.1 mm 6 mps 765 mmHg 67%
    13:00 -4°C° 0.1 mm 6 mps 764 mmHg 72%
    14:00 -4°C° 0.1 mm 6 mps 763 mmHg 76%
    15:00 -2°C° 0.2 mm 5 mps 762 mmHg 79%
    16:00 -2°C° 0.2 mm 5 mps 761 mmHg 82%
    17:00 -2°C° 0.2 mm 5 mps 760 mmHg 84%
    18:00 -2°C° 0.4 mm 5 mps 759 mmHg 88%
    19:00 -1°C° 0.4 mm 5 mps 759 mmHg 91%
    20:00 -1°C° 0.4 mm 5 mps 758 mmHg 94%
    21:00 -1°C° 0.6 mm 4 mps 757 mmHg 94%
    22:00 -1°C° 0.6 mm 4 mps 755 mmHg 94%
    23:00 0°C° 0.6 mm 3 mps 754 mmHg 95%
    Show more